Bastia, France

9:46 AM CEST on March 28, 2017 (GMT +0200)
Poretta

Weather History for LFKB - November, 2012

Change the Weather History Date:

Friday, November 30, 2012

  Actual Average Record
Temperature  
Mean Temperature 48 °F -  
Max Temperature 55 °F 56 °F 66 °F (1996)
Min Temperature 42 °F 42 °F 34 °F (2016)
Degree Days  
Heating Degree Days 16    
Moisture  
Dew Point 43 °F    
Average Humidity 79    
Maximum Humidity 94    
Minimum Humidity 56    
Precipitation  
Precipitation 0.00 in - - ()
Sea Level Pressure  
Sea Level Pressure 29.39 in    
Wind  
Wind Speed 7 mph ()    
Max Wind Speed 14 mph    
Max Gust Speed -    
Visibility 6.3 miles    
Events Rain , Thunderstorm    
Averages and records for this station are not official NWS values.
T = Trace of Precipitation, MM = Missing Value Source: Averaged Metar Reports

Daily Weather History Graph

Daily Weather History Graph

Search for Another Location

Airport or City:

Trip Planner

Search our weather history database for the weather conditions in past years. The results will help you decide how hot, cold, wet, or windy it might be!

Date:

Astronomy

Nov. 30, 2012 Rise Set
Actual Time 7:31 AM CET 4:50 PM CET
Civil Twilight 6:59 AM CET 5:21 PM CET
Nautical Twilight 6:24 AM CET 5:56 PM CET
Astronomical Twilight 5:51 AM CET 6:30 PM CET
Moon 6:30 PM CET (11/30) 8:51 AM CET (11/30)
Length of Visible Light 10h 21m
Length of Day
9h 18m
Full, 97% of the Moon is Illuminated
Nov 30
Full
Dec 6
Last Quarter
Dec 13
New
Dec 20
First Quarter
Dec 28
Full

Hourly Weather History & Observations

Time (CET) Temp. Windchill Dew Point Humidity Pressure Visibility Wind Dir Wind Speed Gust Speed Precip Events Conditions
12:00 AM 50.0 °F - 42.8 °F 76% 29.30 in 6.2 mi SW 4.6 mph - N/A   Overcast
12:30 AM 50.0 °F - 42.8 °F 76% 29.30 in 6.2 mi SW 6.9 mph - N/A   Overcast
1:00 AM 51 °F - 43 °F 67% 29.31 in 37 mi SSW 8.1 mph - -   Clear
1:00 AM 50.0 °F - 42.8 °F 76% 29.30 in 6.2 mi SSW 8.1 mph - N/A   Overcast
1:30 AM 50.0 °F - 42.8 °F 76% 29.30 in 6.2 mi SSW 6.9 mph - N/A   Overcast
2:00 AM 50.0 °F - 44.6 °F 82% 29.30 in 6.2 mi SW 6.9 mph - N/A Rain Light Rain
2:30 AM 50.0 °F - 44.6 °F 82% 29.30 in 6.2 mi SW 11.5 mph - N/A Rain Light Rain
3:00 AM 50.0 °F - 44.6 °F 82% 29.30 in 6.2 mi SW 10.4 mph - N/A Rain Light Rain
3:30 AM 51.8 °F - 44.6 °F 76% 29.30 in 6.2 mi SW 8.1 mph - N/A Rain Light Rain
4:00 AM 50.0 °F - 44.6 °F 82% 29.27 in 6.2 mi SW 8.1 mph - N/A Rain Light Rain
4:30 AM 50.0 °F - 44.6 °F 82% 29.27 in 6.2 mi South 5.8 mph - N/A Rain Light Rain
5:00 AM 50.0 °F - 46.4 °F 87% 29.27 in 6.2 mi SW 4.6 mph - N/A Rain Light Rain
5:30 AM 50.0 °F - 46.4 °F 87% 29.30 in 6.2 mi West 5.8 mph - N/A   Mostly Cloudy
6:00 AM 50.0 °F - 48.2 °F 94% 29.30 in 6.2 mi WNW 6.9 mph - N/A   Mostly Cloudy
6:30 AM 51.8 °F - 48.2 °F 88% 29.30 in 6.2 mi NW 8.1 mph - N/A   Mostly Cloudy
7:00 AM 51 °F - 49 °F 89% 29.31 in 7 mi NNW 13.8 mph - - Rain Light Rain
7:00 AM 50.0 °F - 48.2 °F 94% 29.30 in 6.2 mi NNW 12.7 mph - N/A   Mostly Cloudy
7:30 AM 50.0 °F - 48.2 °F 94% 29.30 in 6.2 mi NW 11.5 mph - N/A Thunderstorm Thunderstorm
8:00 AM 50.0 °F - 46.4 °F 87% 29.30 in 6.2 mi WNW 5.8 mph - N/A Thunderstorm Thunderstorm
8:30 AM 51.8 °F - 46.4 °F 82% 29.30 in 6.2 mi WNW 10.4 mph - N/A Thunderstorm Thunderstorm
9:00 AM 51.8 °F - 44.6 °F 76% 29.33 in 6.2 mi NW 9.2 mph - N/A Thunderstorm Thunderstorm
9:30 AM 51.8 °F - 42.8 °F 71% 29.33 in 6.2 mi NW 9.2 mph - N/A Thunderstorm Thunderstorm
10:00 AM 51.8 °F - 42.8 °F 71% 29.36 in 6.2 mi NNW 11.5 mph - N/A Thunderstorm Thunderstorm
10:30 AM 51.8 °F - 42.8 °F 71% 29.36 in 6.2 mi NNW 9.2 mph - N/A   Mostly Cloudy
11:00 AM 51.8 °F - 44.6 °F 76% 29.39 in 6.2 mi NNW 8.1 mph - N/A   Mostly Cloudy
11:30 AM 51.8 °F - 44.6 °F 76% 29.39 in 6.2 mi North 11.5 mph - N/A   Mostly Cloudy
12:00 PM 51.8 °F - 42.8 °F 71% 29.39 in 6.2 mi North 8.1 mph - N/A   Mostly Cloudy
12:30 PM 53.6 °F - 42.8 °F 67% 29.39 in 6.2 mi NNW 8.1 mph - N/A   Mostly Cloudy
1:00 PM 54 °F - 43 °F 56% 29.41 in 9 mi North 8.1 mph - -   Partly Cloudy
1:00 PM 55.4 °F - 42.8 °F 63% 29.39 in 6.2 mi North 8.1 mph - N/A   Mostly Cloudy
1:30 PM 55.4 °F - 42.8 °F 63% 29.42 in 6.2 mi North 6.9 mph - N/A   Mostly Cloudy
2:00 PM 53.6 °F - 42.8 °F 67% 29.42 in 6.2 mi North 6.9 mph - N/A   Mostly Cloudy
2:30 PM 53.6 °F - 42.8 °F 67% 29.42 in 6.2 mi North 6.9 mph - N/A   Mostly Cloudy
3:00 PM 51.8 °F - 44.6 °F 76% 29.42 in 6.2 mi NW 6.9 mph - N/A Rain Light Rain Showers
3:30 PM 51.8 °F - 44.6 °F 76% 29.42 in 6.2 mi NNW 8.1 mph - N/A Rain Light Rain
4:00 PM 51.8 °F - 44.6 °F 76% 29.44 in 6.2 mi West 4.6 mph - N/A   Mostly Cloudy
4:35 PM 50.0 °F - 37.4 °F 62% 29.44 in 6.2 mi West 6.9 mph - N/A   Mostly Cloudy
5:00 PM 50.0 °F - 37.4 °F 62% 29.44 in 6.2 mi WSW 4.6 mph - N/A   Mostly Cloudy
5:30 PM 48.2 °F - 39.2 °F 71% 29.44 in 6.2 mi Calm Calm - N/A   Mostly Cloudy
6:00 PM 46.4 °F - 41.0 °F 81% 29.47 in 6.2 mi Variable 2.3 mph - N/A   Mostly Cloudy
6:30 PM 44.6 °F - 41.0 °F 87% 29.47 in 6.2 mi SSW 2.3 mph - N/A   Mostly Cloudy
7:00 PM 44 °F - 41 °F 84% 29.50 in 9 mi SSW 3.5 mph - -   Partly Cloudy
7:00 PM 44.6 °F 43.1 °F 41.0 °F 87% 29.47 in 6.2 mi SSW 3.5 mph - N/A   Mostly Cloudy
7:30 PM 42.8 °F 41.1 °F 39.2 °F 87% 29.50 in 6.2 mi South 3.5 mph - N/A   Mostly Cloudy
8:00 PM 42.8 °F 41.1 °F 41.0 °F 93% 29.50 in 6.2 mi SSW 3.5 mph - N/A   Mostly Cloudy
8:30 PM 42.8 °F - 41.0 °F 93% 29.50 in 6.2 mi Variable 2.3 mph - N/A   Mostly Cloudy
9:00 PM 42.8 °F - 41.0 °F 93% 29.50 in 6.2 mi WNW 2.3 mph - N/A   Mostly Cloudy
9:30 PM 42.8 °F 39.3 °F 41.0 °F 93% 29.50 in 6.2 mi SSW 5.8 mph - N/A   Mostly Cloudy
10:00 PM 44.6 °F 42.2 °F 41.0 °F 87% 29.53 in 6.2 mi SSW 4.6 mph - N/A   Mostly Cloudy
10:30 PM 46.4 °F 45.2 °F 41.0 °F 81% 29.53 in 6.2 mi SW 3.5 mph - N/A   Mostly Cloudy
11:00 PM 44.6 °F 43.1 °F 39.2 °F 81% 29.53 in 6.2 mi SSW 3.5 mph - N/A   Mostly Cloudy
11:30 PM 44.6 °F 39.7 °F 39.2 °F 81% 29.53 in 6.2 mi SW 9.2 mph - N/A   Mostly Cloudy